User: anonymous   Login
Location: Vancouver
(49.2500°N, 123.1330°W)
Time: 02:37:36
(UTC-07:00)
Language:

Cosmos 1340 Rocket - Orbit

View from above orbital plane
View from above orbital plane
View from above satellite
View from above satellite

Ground track
Ground track

The orbit data is extracted from the following two-line orbital elements,

1 13068U 82013B   18172.91762376 +.00000739 +00000-0 +47388-4 0  9995
2 13068 081.2028 160.3044 0021715 174.3383 185.8091 15.07159839978918
Epoch (UTC): 21 June 2018 22:01:22
Eccentricity: 0.0021715
inclination: 81.2028°
perigee height: 530 km
apogee height: 560 km
right ascension of ascending node: 160.3044°
argument of perigee: 174.3383°
revolutions per day: 15.07159839
mean anomaly at epoch: 185.8091°
orbit number at epoch: 97891

The dashed part of the orbit path shows where the satellite is in the earth's shadow,  

DLR